{"data":{"norad_id":52102,"epoch":"2026-05-25T02:31:26.402016Z","epoch_age_seconds":56066,"freshness":"FRESH","line1":"1 52102U 22029Q   26145.10516669  .00000639  00000+0  58225-4 0  9990","line2":"2 52102  53.2155  96.0783 0001368  81.5391 278.5756 15.08837364232328","mean_motion":15.08837364,"eccentricity":0.0001368,"inclination_deg":53.2155,"raan_deg":96.0783,"arg_perigee_deg":81.5391,"mean_anomaly_deg":278.5756,"bstar":5.8225e-5,"rev_number":23232,"period_min":95.43772141104,"perigee_km":538.80507903385,"apogee_km":540.69781331272,"semimajor_km":6917.8884461733,"source":"CELESTRAK","updated_at":"2026-05-25T13:38:17.070737Z"}}